NOAA 16 DEB, 41079

Orbit data source: Space-Track

NOAA 16 DEB, 41079 is space debris in SSO originally from a launch on Thu, 21 Sep 2000 UTC launched from the Air Force Western Test Range (AFWTR). Debris objects in space refer to the collection of defunct objects orbiting the Earth. Examples of debris include non-operational satellites, rocket bodies, and fragments generated from explosions, collisions, or faulty payload assembly.

Loading next visibility...
NOAA 16 DEB details
Identifier
41079, 2000-055AN
Orbit
SSO
Last TLE update14 hours ago
Origin
Flag of USNOAA (US)
ManufacturerUnknown
MissionSpacecraft
Bus & MotorUnknown
MassUnknown
Launch date (UTC)
2000-09-21 (24 years ago)
Launch vehicleUnknown
Launch site
Air Force Western Test Range (AFWTR)
Object type
Payload
Rocket body
Debris
Shape & HBRUnknown
Radar Cross SectionSmall (<0.1 m²)

Expand to show TLE details & history

TLE from 14 hours ago
0 NOAA 16 DEB
1 41079U 00055AN  24360.85806915  .00001619  00000-0  13920-2 0  9992
2 41079  99.0569 309.8921 0145152  32.2309 328.7616 13.83383987458003
Epoch: 2024-12-25T20:35Z
Definitive object data (Epoch: 2024-12-25T20:35:37.174Z)
Latitude-0.00006°
Longitude-93.85857°
Altitude864.197 km
Speed7.466 km/s
True Right ascension20h 39m 34s
True Declination0° 00' 00"
Sunlit
Object was in daylight at TLE epoch
Visualization TLE readout
Latitude-53.80365°
Longitude-80.79711°
Altitude962.431 km
Speed7.375 km/s
Apparent Right ascension21h 33m 09s
Apparent Declination-47° 10' 29"
Sunlit
Object is in daylight
Visualization observer readout
Local Sidereal Time09:34:21
Azimuth178.389° S
Elevation-82.738°
Doppler factor1
Orbital elements
Apogee altitude1,055.489 km
Perigee altitude842.775 km
Semi-major axis7,327.269 km
Eccentricity0.0145152
Inclination99.0569°
RAAN309.8921°
Arg. of periapsis32.2309°
True anomaly327.88545°
Mean anomaly328.7616°
Eccentric anomaly328.32489°
Mean motion3.46043 °/min
BSTAR0.001392
Orbital period104.03 mins
Loading maneuver chart data...
Loading historical data...
Loading historical data...
Loading historical data...
Loading historical data...
Loading historical data...
Loading historical data...
Loading historical data...

NOAA 16 DEB Visibility forecast

Observer location: undefined°, undefined

Span
Click to sort rows by Start time (UTC) header in descending order
Start Az.
Max El. time (UTC)
Max El. Az.
Max El.
End time (UTC)
End Az.
8 mins2024-12-26 11:03:12.841Z340.839° N2024-12-26 11:07:12.841Z292.738° NW21.74°2024-12-26 11:11:12.841Z249.536° W
4 mins2024-12-26 19:21:12.841Z79.108° E2024-12-26 19:22:12.841Z66.518° ENE15.577°2024-12-26 19:25:12.841Z30.028° NE
9 mins2024-12-26 21:01:12.841Z178.879° S2024-12-26 21:05:12.841Z282.301° WNW42.203°2024-12-26 21:10:12.841Z340.48° N
11 mins2024-12-27 09:37:12.841Z17.543° NNE2024-12-27 09:42:12.841Z74.826° E44.186°2024-12-27 09:48:12.841Z189.876° SSW
|